Location: Newark
(45.8667°N, 9.7333°E)
Time: 02:01:40
(UTC+00:00)

Vanguard 3 - Pass Details

Date: 24 January 2020
Orbit: 508 x 3263 km, 33.3° (Epoch: 25 February)

Event Time Altitude Azimuth Distance (km) Brightness Sun altitude
Rises 14:54:14 0° 203° (SSW) 6,746 13.2 10.6°
Reaches altitude 10° 14:59:37 10° 193° (SSW) 5,979 12.6 9.9°
Maximum altitude 15:14:15 28° 144° (SE) 4,826 11.2 7.9°
Drops below altitude 10° 15:28:06 10° 95° (E) 5,704 11.0 6.0°
Sets 15:32:58 0° 85° (E) 6,405 11.2 5.3°
